Regional Weather Roundup
Issued by NWS

Home | Current Version | Previous Version | Text Only | Print | Product List | Glossary Off
Versions: 1 2 3 4 5 6 7 8 9 10 11 12 13 14 15 16 17 18 19 20 21 22 23 24 25 26 27 28 29 30 31 32 33 34 35 36 37 38 39 40 41 42 43 44 45 46 47 48 49 50

000
ASUS43 KMPX 010501
RWRMN
WEATHER ROUNDUP FOR MINNESOTA
NATIONAL WEATHER SERVICE TWIN CITIES/CHANHASSEN MN
1200 AM CDT TUE SEP 01 2015


NOTE: "FAIR" INDICATES FEW OR NO CLOUDS BELOW 12,000 FEET WITH NO
SIGNIFICANT WEATHER AND/OR OBSTRUCTIONS TO VISIBILITY. N/A MEANS
CURRENT SKY AND/OR WEATHER CONDITIONS ARE NOT AVAILABLE.

MNZ060>063-068>070-010600-
   Twin Cities Metro

CITY           SKY/WX    TMP DP  RH WIND       PRES   REMARKS
TWIN CITIES    MOCLDY    77  70  79 S3        29.91R
ST PAUL        PTCLDY    73  71  93 S8        29.91R
CRYSTAL        MOCLDY    76  70  82 S5        29.90R
BLAINE         PTCLDY    73  72  94 S5        29.91R
LAKEVILLE      CLEAR     70  70 100 CALM      29.93R FOG
EDEN PRAIRIE   PTCLDY    74  70  87 SW5       29.91R
SOUTH ST PAUL  CLEAR     74  70  88 S5        29.91S FOG
LAKE ELMO      FAIR      72  70  94 S5        29.92S
$$
MNZ001>005-007-008-013>017-022>024-027-028-010600-
   Northwest Minnesota

CITY           SKY/WX    TMP DP  RH WIND       PRES   REMARKS
BEMIDJI        CLOUDY    63  63  99 W6        29.88R
HALLOCK        CLEAR     57  48  72 CALM      29.83R
ROSEAU         PTCLDY    61  54  77 S6        29.84R
WARROAD        MOCLDY    63  57  82 SW6       29.83S
THIEF RVR FALL PTCLDY   N/A N/A N/A W3        29.86R
CROOKSTON      PTCLDY    61  54  77 W3        29.87R
FOSSTON        MOCLDY    59  57  94 CALM      29.89R
DETROIT LAKES  PTCLDY    66  63  88 CALM      29.91R
MOORHEAD       MOCLDY    64  64 100 CALM      29.89R FOG
PARK RAPIDS    MOCLDY    67  64  90 CALM      29.89R
MAHNOMEN       FAIR      62  60  93 CALM      29.88S
$$
MNZ006-009>011-018-025>026-010600-
   North Central Minnesota

CITY           SKY/WX    TMP DP  RH WIND       PRES   REMARKS
BAUDETTE       MOCLDY    64  61  90 SW6       29.84R
FLAG ISLAND    PTCLDY    66  61  82 W12       29.80S
INTL FALLS     CLOUDY    63  62  97 SW3       29.84S
WASKISH        CLOUDY    64  64 100 SW6       29.86S
BIG FORK       MOCLDY    66  63  88 CALM      29.87S
LONGVILLE      CLOUDY    68  66  94 CALM      29.87S FOG
GRAND RAPIDS     N/A     72  66  83 S7        29.87S
CRANE LAKE     MOCLDY    61  61 100 S1        29.87R
ORR            MOCLDY    66  63  88 CALM      29.84S
COOK           MOCLDY    68  66  94 CALM      29.87S
WALKER         FAIR      66  66  99 CALM      29.88R FOG
$$
MNZ012-019>021-037-010600-
   Northeast Minnesota

CITY           SKY/WX    TMP DP  RH WIND       PRES   REMARKS
DULUTH         MOCLDY    72  68  87 SW8       29.88S
ELY            PTCLDY    72  66  83 SW6       29.87S
HIBBING        CLOUDY    72  67  84 S3        29.87R
EVELETH        MOCLDY    70  68  94 SW3       29.88S
DULUTH HARBOR  PTCLDY    72  70  94 CALM      29.86S
TWO HARBORS    PTCLDY    72  66  83 CALM      29.86S HAZE
SILVER BAY     CLOUDY    70  66  88 CALM      29.86S FOG
GRAND MARAIS     N/A     57  56  96 CALM      29.85S
G MARAIS ARPRT MOCLDY    68  64  88 S7        29.90F FOG
$$
MNZ029>031-032-039>041-046>048-054>057-064-010600-
   West Central Minnesota

CITY           SKY/WX    TMP DP  RH WIND       PRES   REMARKS
FERGUS FALLS   MOCLDY    66  66 100 CALM      29.88R FOG
WHEATON        MOCLDY    64  63  94 CALM      29.90S
MORRIS         MOCLDY    70  66  88 CALM      29.88S
ALEXANDRIA     MOCLDY    70  67  90 CALM      29.91R
ELBOW LAKE     FAIR      67  67  98 NW6       29.89R
WADENA         PTCLDY    66  64  94 CALM      29.89R
GLENWOOD       MOCLDY    70  66  88 CALM      29.90S
APPLETON       MOCLDY    70  66  88 CALM      29.88R
BENSON         MOCLDY    68  64  88 CALM      29.89R
ORTONVILLE     MOCLDY    72  66  83 CALM      29.89R
MADISON        MOCLDY    70  66  88 W5        29.89R
WILLMAR        FAIR      72  68  88 S3        29.91R
$$
MNZ033>034-036-042>043-049>051-058-059-010600-
   Central Minnesota

CITY           SKY/WX    TMP DP  RH WIND       PRES   REMARKS
ST CLOUD       PTCLDY    71  68  90 S5        29.89R
SAUK CENTRE    FAIR      71  68  90 S5        29.90R
PAYNESVILLE    PTCLDY    72  67  84 SE8       29.90R
AITKIN         CLOUDY    73  66  78 S7        29.87R
PINE RIVER     CLOUDY    70  70 100 CALM      29.91R
BRAINERD       CLOUDY    71  67  87 S6        29.88R
STAPLES        MOCLDY    68  66  94 CALM      29.89R
LONG PRAIRIE   FAIR      70  68  94 S3        29.90R
LITTLE FALLS   MOCLDY    70  64  83 CALM      29.89R
LITCHFIELD     CLEAR     73  70  88 S3        29.91R
BUFFALO        FAIR      73  67  82 S3        29.91S
MAPLE LAKE     FAIR      72  69  92 S5        29.91R
$$
MNZ037-044-045-052-053-010600-
   East Central Minnesota

CITY           SKY/WX    TMP DP  RH WIND       PRES   REMARKS
PRINCETON      CLEAR     73  70  88 S7        29.89S
MORA           PTCLDY    70  66  88 S3        29.91R
CAMBRIDGE      FAIR      73  64  73 S5        29.88S
RUSH CITY      PTCLDY    70  67  92 S6        29.90S
MOOSE LAKE     PTCLDY    70  66  88 SW5       29.87R
HINCKLEY       FAIR      72  70  94 S5        29.89S
CLOQUET        MOCLDY    72  66  83 S5        29.88S
MCGREGOR       MOCLDY    72  68  88 S3        29.88S
$$
MNZ071>073-080-081-089-090-097-098-010600-
   Southwest Minnesota

CITY           SKY/WX    TMP DP  RH WIND       PRES   REMARKS
MONTEVIDEO     MOCLDY    72  66  83 SW5       29.91R
GRANITE FALLS  PTCLDY    70  68  95 CALM      29.91R
CANBY          MOCLDY    73  69  85 W3        29.91R
MARSHALL       PTCLDY    72  64  78 SW8       29.92R
REDWOOD FALLS  PTCLDY    72  67  84 S9        29.90R
OLIVIA         PTCLDY    68  63  83 S3        29.90R
PIPESTONE      PTCLDY    72  68  88 S3        29.94R
WINDOM         CLEAR     70  64  83 CALM      29.94S
WORTHINGTON    CLEAR     68  64  88 S7        29.94S
JACKSON        CLEAR     68  66  94 S7        29.96R
TRACY          CLEAR     73  68  86 SW10      29.92R
SLAYTON        CLEAR     70  68  92 S8        29.94S
$$
MNZ065>067-074>077-082>085-091>093-010600-
   South Central Minnesota

CITY           SKY/WX    TMP DP  RH WIND       PRES   REMARKS
MANKATO        CLEAR     72  66  83 S5        29.93R
NEW ULM        CLEAR     70  66  88 S7        29.91S
ST JAMES       CLEAR     68  66  94 S5        29.94S
FAIRMONT       CLEAR     66  61  82 CALM      29.94R
GLENCOE        CLEAR     72  69  92 S5        29.91S
FARIBAULT      CLEAR     72  70  94 S5        29.94R
OWATONNA       CLEAR     72  68  88 S7        29.94S
WASECA         CLEAR     70  66  88 S3        29.95S
ALBERT LEA     CLEAR     72  70  94 CALM      29.96R
$$
MNZ078>079-086>088-094>096-010600-
   Southeast Minnesota

CITY           SKY/WX    TMP DP  RH WIND       PRES   REMARKS
ROCHESTER      PTCLDY    71  70  96 SW7       29.97S FOG
RED WING       PTCLDY    73  70  88 CALM      29.92S
STANTON        CLEAR     72  68  87 S3        29.92S
DODGE CENTER   PTCLDY    70  68  94 S5        29.96S FOG
WINONA         PTCLDY    75  70  83 CALM      29.95S
AUSTIN         CLEAR     72  72 100 CALM      29.96S FOG
PRESTON        PTCLDY    72  69  92 S6        29.98S FOG
$$
ABBREVIATIONS USED IN REMARKS
   TC - TEMPERATURES IN CELSIUS
  WCI - WIND CHILL INDEX
   HX - HEAT INDEX
  VSB - VISIBILITY
$$


USA.gov is the U.S. government's official web portal to all federal, state and local government web resources and services.